owner,sensor,date,latitude,longitude,vertical_datum,wind_speed,wind_to_direction,wind_speed_of_gust,qcFlag 
TCOON,ioos:station:TCOON:003:1,2012-05-01T00:00:00Z,26.8015,-97.4706,0.0,9.1,127.0,10.9,'11111222,11111222,11111222' 
TCOON,ioos:station:TCOON:003:1,2012-05-01T01:00:00Z,26.8015,-97.4706,0.0,8.1,133.0,9.5,'11111222,11111222,11111222' 
TCOON,ioos:station:TCOON:003:1,2012-05-01T02:00:00Z,26.8015,-97.4706,0.0,7.8,129.0,9.0,'11111222,11111222,11111222' 
TCOON,ioos:station:TCOON:003:1,2012-05-01T03:00:00Z,26.8015,-97.4706,0.0,8.0,128.0,9.6,'11111222,11111222,11111222' 
TCOON,ioos:station:TCOON:003:1,2012-05-01T04:00:00Z,26.8015,-97.4706,0.0,7.7,127.0,9.7,'11111222,11111222,11111222' 
TCOON,ioos:station:TCOON:003:1,2012-05-01T05:00:00Z,26.8015,-97.4706,0.0,6.5,130.0,7.5,'11111222,11111222,11111222' 
TCOON,ioos:station:TCOON:003:1,2012-05-01T06:00:00Z,26.8015,-97.4706,0.0,6.1,131.0,7.1,'11111222,11111222,11111222' 
TCOON,ioos:station:TCOON:003:1,2012-05-01T07:00:00Z,26.8015,-97.4706,0.0,5.0,139.0,6.0,'11111222,11111222,11111222' 
TCOON,ioos:station:TCOON:003:1,2012-05-01T08:00:00Z,26.8015,-97.4706,0.0,7.2,133.0,8.2,'11111222,11111222,11111222' 
TCOON,ioos:station:TCOON:003:1,2012-05-01T09:00:00Z,26.8015,-97.4706,0.0,9.4,119.0,11.1,'11111222,11111222,11111222' 
TCOON,ioos:station:TCOON:003:1,2012-05-01T10:00:00Z,26.8015,-97.4706,0.0,6.8,136.0,9.0,'11111222,11111222,11111222' 
TCOON,ioos:station:TCOON:003:1,2012-05-01T11:00:00Z,26.8015,-97.4706,0.0,11.5,139.0,13.2,'11111222,11111222,11111222' 
TCOON,ioos:station:TCOON:003:1,2012-05-01T12:00:00Z,26.8015,-97.4706,0.0,7.8,147.0,8.9,'11111222,11111222,11111222' 
TCOON,ioos:station:TCOON:003:1,2012-05-01T13:00:00Z,26.8015,-97.4706,0.0,8.4,152.0,9.7,'11111222,11111222,11111222' 
TCOON,ioos:station:TCOON:003:1,2012-05-01T14:00:00Z,26.8015,-97.4706,0.0,8.1,152.0,9.4,'11111222,11111222,11111222' 
TCOON,ioos:station:TCOON:003:1,2012-05-01T15:00:00Z,26.8015,-97.4706,0.0,8.2,159.0,10.1,'11111222,11111222,11111222' 
TCOON,ioos:station:TCOON:003:1,2012-05-01T16:00:00Z,26.8015,-97.4706,0.0,7.4,142.0,10.2,'11111222,11111222,11111222' 
TCOON,ioos:station:TCOON:003:1,2012-05-01T17:00:00Z,26.8015,-97.4706,0.0,8.3,139.0,9.4,'11111222,11111222,11111222' 
TCOON,ioos:station:TCOON:003:1,2012-05-01T18:00:00Z,26.8015,-97.4706,0.0,8.0,122.0,9.9,'11111222,11111222,11111222' 
TCOON,ioos:station:TCOON:003:1,2012-05-01T19:00:00Z,26.8015,-97.4706,0.0,9.6,121.0,10.7,'11111222,11111222,11111222' 
TCOON,ioos:station:TCOON:003:1,2012-05-01T20:00:00Z,26.8015,-97.4706,0.0,9.7,122.0,11.7,'11111222,11111222,11111222' 
TCOON,ioos:station:TCOON:003:1,2012-05-01T21:00:00Z,26.8015,-97.4706,0.0,8.9,130.0,10.8,'11111222,11111222,11111222' 
TCOON,ioos:station:TCOON:003:1,2012-05-01T22:00:00Z,26.8015,-97.4706,0.0,9.4,131.0,11.0,'11111222,11111222,11111222' 
TCOON,ioos:station:TCOON:003:1,2012-05-01T23:00:00Z,26.8015,-97.4706,0.0,8.7,127.0,10.8,'11111222,11111222,11111222' 
TCOON,ioos:station:TCOON:003:1,2012-05-02T00:00:00Z,26.8015,-97.4706,0.0,7.6,122.0,10.0,'11111222,11111222,11111222' 
TCOON,ioos:station:TCOON:003:1,2012-05-02T01:00:00Z,26.8015,-97.4706,0.0,7.8,126.0,9.1,'11111222,11111222,11111222' 
TCOON,ioos:station:TCOON:003:1,2012-05-02T02:00:00Z,26.8015,-97.4706,0.0,7.9,128.0,8.7,'11111222,11111222,11111222' 
TCOON,ioos:station:TCOON:003:1,2012-05-02T03:00:00Z,26.8015,-97.4706,0.0,6.4,135.0,7.5,'11111222,11111222,11111222' 
TCOON,ioos:station:TCOON:003:1,2012-05-02T04:00:00Z,26.8015,-97.4706,0.0,6.6,134.0,8.2,'11111222,11111222,11111222' 
TCOON,ioos:station:TCOON:003:1,2012-05-02T05:00:00Z,26.8015,-97.4706,0.0,6.6,130.0,7.2,'11111222,11111222,11111222' 
TCOON,ioos:station:TCOON:003:1,2012-05-02T06:00:00Z,26.8015,-97.4706,0.0,6.8,136.0,7.6,'11111222,11111222,11111222' 
TCOON,ioos:station:TCOON:003:1,2012-05-02T07:00:00Z,26.8015,-97.4706,0.0,5.7,137.0,6.8,'11111222,11111222,11111222' 
TCOON,ioos:station:TCOON:003:1,2012-05-02T08:00:00Z,26.8015,-97.4706,0.0,5.2,129.0,6.2,'11111222,11111222,11111222' 
TCOON,ioos:station:TCOON:003:1,2012-05-02T09:00:00Z,26.8015,-97.4706,0.0,4.2,132.0,4.8,'11111222,11111222,11111222' 
TCOON,ioos:station:TCOON:003:1,2012-05-02T10:00:00Z,26.8015,-97.4706,0.0,4.4,138.0,5.6,'11111222,11111222,11111222' 
TCOON,ioos:station:TCOON:003:1,2012-05-02T11:00:00Z,26.8015,-97.4706,0.0,5.1,135.0,5.7,'11111222,11111222,11111222' 
TCOON,ioos:station:TCOON:003:1,2012-05-02T12:00:00Z,26.8015,-97.4706,0.0,4.5,135.0,5.3,'11111222,11111222,11111222' 
TCOON,ioos:station:TCOON:003:1,2012-05-02T13:00:00Z,26.8015,-97.4706,0.0,5.3,151.0,6.2,'11111222,11111222,11111222' 
TCOON,ioos:station:TCOON:003:1,2012-05-02T14:00:00Z,26.8015,-97.4706,0.0,5.6,161.0,6.5,'11111222,11111222,11111222' 
TCOON,ioos:station:TCOON:003:1,2012-05-02T15:00:00Z,26.8015,-97.4706,0.0,5.3,158.0,6.2,'11111222,11111222,11111222' 
TCOON,ioos:station:TCOON:003:1,2012-05-02T16:00:00Z,26.8015,-97.4706,0.0,5.7,161.0,6.4,'11111222,11111222,11111222' 
TCOON,ioos:station:TCOON:003:1,2012-05-02T17:00:00Z,26.8015,-97.4706,0.0,6.6,141.0,7.8,'11111222,11111222,11111222' 
TCOON,ioos:station:TCOON:003:1,2012-05-02T18:00:00Z,26.8015,-97.4706,0.0,8.1,136.0,9.2,'11111222,11111222,11111222' 
TCOON,ioos:station:TCOON:003:1,2012-05-02T19:00:00Z,26.8015,-97.4706,0.0,7.6,147.0,9.7,'11111222,11111222,11111222' 
TCOON,ioos:station:TCOON:003:1,2012-05-02T20:00:00Z,26.8015,-97.4706,0.0,8.2,145.0,10.4,'11111222,11111222,11111222' 
TCOON,ioos:station:TCOON:003:1,2012-05-02T21:00:00Z,26.8015,-97.4706,0.0,8.4,138.0,9.7,'11111222,11111222,11111222' 
TCOON,ioos:station:TCOON:003:1,2012-05-02T22:00:00Z,26.8015,-97.4706,0.0,8.6,135.0,10.0,'11111222,11111222,11111222' 
TCOON,ioos:station:TCOON:003:1,2012-05-02T23:00:00Z,26.8015,-97.4706,0.0,8.9,132.0,10.6,'11111222,11111222,11111222' 
TCOON,ioos:station:TCOON:003:1,2012-05-03T00:00:00Z,26.8015,-97.4706,0.0,8.6,143.0,10.0,'11111222,11111222,11111222' 
TCOON,ioos:station:TCOON:003:1,2012-05-03T01:00:00Z,26.8015,-97.4706,0.0,7.7,137.0,9.4,'11111222,11111222,11111222' 
TCOON,ioos:station:TCOON:003:1,2012-05-03T02:00:00Z,26.8015,-97.4706,0.0,7.2,130.0,8.6,'11111222,11111222,11111222' 
TCOON,ioos:station:TCOON:003:1,2012-05-03T03:00:00Z,26.8015,-97.4706,0.0,7.2,142.0,8.7,'11111222,11111222,11111222' 
TCOON,ioos:station:TCOON:003:1,2012-05-03T04:00:00Z,26.8015,-97.4706,0.0,7.1,137.0,7.9,'11111222,11111222,11111222' 
TCOON,ioos:station:TCOON:003:1,2012-05-03T05:00:00Z,26.8015,-97.4706,0.0,7.1,133.0,7.8,'11111222,11111222,11111222' 
TCOON,ioos:station:TCOON:003:1,2012-05-03T06:00:00Z,26.8015,-97.4706,0.0,7.3,142.0,8.1,'11111222,11111222,11111222' 
TCOON,ioos:station:TCOON:003:1,2012-05-03T07:00:00Z,26.8015,-97.4706,0.0,6.5,146.0,7.2,'11111222,11111222,11111222' 
TCOON,ioos:station:TCOON:003:1,2012-05-03T08:00:00Z,26.8015,-97.4706,0.0,7.4,140.0,8.1,'11111222,11111222,11111222' 
TCOON,ioos:station:TCOON:003:1,2012-05-03T09:00:00Z,26.8015,-97.4706,0.0,5.4,137.0,6.7,'11111222,11111222,11111222' 
TCOON,ioos:station:TCOON:003:1,2012-05-03T10:00:00Z,26.8015,-97.4706,0.0,6.4,141.0,7.2,'11111222,11111222,11111222' 
TCOON,ioos:station:TCOON:003:1,2012-05-03T11:00:00Z,26.8015,-97.4706,0.0,5.5,149.0,6.3,'11111222,11111222,11111222' 
TCOON,ioos:station:TCOON:003:1,2012-05-03T12:00:00Z,26.8015,-97.4706,0.0,4.4,145.0,5.6,'11111222,11111222,11111222' 
TCOON,ioos:station:TCOON:003:1,2012-05-03T13:00:00Z,26.8015,-97.4706,0.0,5.0,148.0,5.9,'11111222,11111222,11111222' 
TCOON,ioos:station:TCOON:003:1,2012-05-03T14:00:00Z,26.8015,-97.4706,0.0,6.7,140.0,,'1111122,1111122,1111122' 
TCOON,ioos:station:TCOON:003:1,2012-05-03T15:00:00Z,26.8015,-97.4706,0.0,6.4,162.0,7.6,'11111222,11111222,11111222' 
TCOON,ioos:station:TCOON:003:1,2012-05-03T16:00:00Z,26.8015,-97.4706,0.0,5.6,175.0,6.9,'11111222,11111222,11111222' 
TCOON,ioos:station:TCOON:003:1,2012-05-03T17:00:00Z,26.8015,-97.4706,0.0,6.4,151.0,7.1,'11111222,11111222,11111222' 
TCOON,ioos:station:TCOON:003:1,2012-05-03T18:00:00Z,26.8015,-97.4706,0.0,6.2,149.0,8.0,'11111222,11111222,11111222' 
TCOON,ioos:station:TCOON:003:1,2012-05-03T19:00:00Z,26.8015,-97.4706,0.0,8.7,128.0,10.3,'11111222,11111222,11111222' 
TCOON,ioos:station:TCOON:003:1,2012-05-03T20:00:00Z,26.8015,-97.4706,0.0,8.3,136.0,10.0,'11111222,11111222,11111222' 
TCOON,ioos:station:TCOON:003:1,2012-05-03T21:00:00Z,26.8015,-97.4706,0.0,8.7,128.0,9.9,'11111222,11111222,11111222' 
TCOON,ioos:station:TCOON:003:1,2012-05-03T22:00:00Z,26.8015,-97.4706,0.0,9.2,127.0,11.4,'11111222,11111222,11111222' 
TCOON,ioos:station:TCOON:003:1,2012-05-03T23:00:00Z,26.8015,-97.4706,0.0,8.3,125.0,10.0,'11111222,11111222,11111222' 
TCOON,ioos:station:TCOON:003:1,2012-05-04T00:00:00Z,26.8015,-97.4706,0.0,6.4,128.0,8.3,'11111222,11111222,11111222' 
TCOON,ioos:station:TCOON:003:1,2012-05-04T01:00:00Z,26.8015,-97.4706,0.0,6.7,126.0,8.1,'11111222,11111222,11111222' 
TCOON,ioos:station:TCOON:003:1,2012-05-04T02:00:00Z,26.8015,-97.4706,0.0,6.2,124.0,7.6,'11111222,11111222,11111222' 
TCOON,ioos:station:TCOON:003:1,2012-05-04T03:00:00Z,26.8015,-97.4706,0.0,6.6,123.0,7.6,'11111222,11111222,11111222' 
TCOON,ioos:station:TCOON:003:1,2012-05-04T04:00:00Z,26.8015,-97.4706,0.0,6.2,113.0,7.5,'11111222,11111222,11111222' 
TCOON,ioos:station:TCOON:003:1,2012-05-04T05:00:00Z,26.8015,-97.4706,0.0,7.1,122.0,8.5,'11111222,11111222,11111222' 
TCOON,ioos:station:TCOON:003:1,2012-05-04T06:00:00Z,26.8015,-97.4706,0.0,6.9,134.0,8.2,'11111222,11111222,11111222' 
TCOON,ioos:station:TCOON:003:1,2012-05-04T07:00:00Z,26.8015,-97.4706,0.0,5.0,137.0,5.9,'11111222,11111222,11111222' 
TCOON,ioos:station:TCOON:003:1,2012-05-04T08:00:00Z,26.8015,-97.4706,0.0,6.0,152.0,8.6,'11111222,11111222,11111222' 
TCOON,ioos:station:TCOON:003:1,2012-05-04T09:00:00Z,26.8015,-97.4706,0.0,5.2,126.0,6.4,'11111222,11111222,11111222' 
TCOON,ioos:station:TCOON:003:1,2012-05-04T10:00:00Z,26.8015,-97.4706,0.0,3.3,87.0,4.1,'11111222,11111222,11111222' 
TCOON,ioos:station:TCOON:003:1,2012-05-04T11:00:00Z,26.8015,-97.4706,0.0,3.2,85.0,4.1,'11111222,11111222,11111222' 
TCOON,ioos:station:TCOON:003:1,2012-05-04T12:00:00Z,26.8015,-97.4706,0.0,3.2,120.0,3.7,'11111222,11111222,11111222' 
TCOON,ioos:station:TCOON:003:1,2012-05-04T13:00:00Z,26.8015,-97.4706,0.0,5.1,153.0,6.4,'11111222,11111222,11111222' 
TCOON,ioos:station:TCOON:003:1,2012-05-04T14:00:00Z,26.8015,-97.4706,0.0,5.1,164.0,5.6,'11111222,11111222,11111222' 
TCOON,ioos:station:TCOON:003:1,2012-05-04T15:00:00Z,26.8015,-97.4706,0.0,6.4,157.0,6.8,'11111222,11111222,11111222' 
TCOON,ioos:station:TCOON:003:1,2012-05-04T16:00:00Z,26.8015,-97.4706,0.0,7.6,172.0,8.5,'11111222,11111222,11111222' 
TCOON,ioos:station:TCOON:003:1,2012-05-04T17:00:00Z,26.8015,-97.4706,0.0,6.7,155.0,8.2,'11111222,11111222,11111222' 
TCOON,ioos:station:TCOON:003:1,2012-05-04T18:00:00Z,26.8015,-97.4706,0.0,7.9,149.0,8.9,'11111222,11111222,11111222' 
TCOON,ioos:station:TCOON:003:1,2012-05-04T19:00:00Z,26.8015,-97.4706,0.0,8.0,136.0,9.5,'11111222,11111222,11111222' 
TCOON,ioos:station:TCOON:003:1,2012-05-04T20:00:00Z,26.8015,-97.4706,0.0,8.0,139.0,9.2,'11111222,11111222,11111222' 
TCOON,ioos:station:TCOON:003:1,2012-05-04T21:00:00Z,26.8015,-97.4706,0.0,9.0,139.0,10.5,'11111222,11111222,11111222' 
TCOON,ioos:station:TCOON:003:1,2012-05-04T22:00:00Z,26.8015,-97.4706,0.0,10.2,136.0,12.1,'11111222,11111222,11111222' 
TCOON,ioos:station:TCOON:003:1,2012-05-04T23:00:00Z,26.8015,-97.4706,0.0,10.0,137.0,11.3,'11111222,11111222,11111222' 
TCOON,ioos:station:TCOON:003:1,2012-05-05T00:00:00Z,26.8015,-97.4706,0.0,9.2,145.0,11.1,'11111222,11111222,11111222' 
TCOON,ioos:station:TCOON:003:1,2012-05-05T01:00:00Z,26.8015,-97.4706,0.0,7.9,140.0,10.0,'11111222,11111222,11111222' 
TCOON,ioos:station:TCOON:003:1,2012-05-05T02:00:00Z,26.8015,-97.4706,0.0,7.7,147.0,9.3,'11111222,11111222,11111222' 
TCOON,ioos:station:TCOON:003:1,2012-05-05T03:00:00Z,26.8015,-97.4706,0.0,7.1,146.0,8.3,'11111222,11111222,11111222' 
TCOON,ioos:station:TCOON:003:1,2012-05-05T04:00:00Z,26.8015,-97.4706,0.0,8.9,150.0,9.8,'11111222,11111222,11111222' 
TCOON,ioos:station:TCOON:003:1,2012-05-05T05:00:00Z,26.8015,-97.4706,0.0,7.1,146.0,8.9,'11111222,11111222,11111222' 
TCOON,ioos:station:TCOON:003:1,2012-05-05T06:00:00Z,26.8015,-97.4706,0.0,6.6,141.0,7.4,'11111222,11111222,11111222' 
TCOON,ioos:station:TCOON:003:1,2012-05-05T07:00:00Z,26.8015,-97.4706,0.0,7.5,140.0,8.5,'11111222,11111222,11111222' 
TCOON,ioos:station:TCOON:003:1,2012-05-05T08:00:00Z,26.8015,-97.4706,0.0,6.6,135.0,7.8,'11111222,11111222,11111222' 
TCOON,ioos:station:TCOON:003:1,2012-05-05T09:00:00Z,26.8015,-97.4706,0.0,6.8,146.0,8.3,'11111222,11111222,11111222' 
TCOON,ioos:station:TCOON:003:1,2012-05-05T10:00:00Z,26.8015,-97.4706,0.0,7.6,141.0,9.0,'11111222,11111222,11111222' 
TCOON,ioos:station:TCOON:003:1,2012-05-05T11:00:00Z,26.8015,-97.4706,0.0,7.4,144.0,9.2,'11111222,11111222,11111222' 
TCOON,ioos:station:TCOON:003:1,2012-05-05T12:00:00Z,26.8015,-97.4706,0.0,8.9,150.0,10.3,'11111222,11111222,11111222' 
TCOON,ioos:station:TCOON:003:1,2012-05-05T13:00:00Z,26.8015,-97.4706,0.0,7.7,149.0,8.6,'11111222,11111222,11111222' 
TCOON,ioos:station:TCOON:003:1,2012-05-05T14:00:00Z,26.8015,-97.4706,0.0,8.6,153.0,10.1,'11111222,11111222,11111222' 
TCOON,ioos:station:TCOON:003:1,2012-05-05T15:00:00Z,26.8015,-97.4706,0.0,10.3,154.0,11.8,'11111222,11111222,11111222' 
TCOON,ioos:station:TCOON:003:1,2012-05-05T16:00:00Z,26.8015,-97.4706,0.0,10.7,155.0,12.0,'11111222,11111222,11111222' 
TCOON,ioos:station:TCOON:003:1,2012-05-05T17:00:00Z,26.8015,-97.4706,0.0,9.6,153.0,11.1,'11111222,11111222,11111222' 
TCOON,ioos:station:TCOON:003:1,2012-05-05T18:00:00Z,26.8015,-97.4706,0.0,11.0,154.0,12.0,'11111222,11111222,11111222' 
TCOON,ioos:station:TCOON:003:1,2012-05-05T19:00:00Z,26.8015,-97.4706,0.0,11.2,144.0,13.2,'11111222,11111222,11111222' 
TCOON,ioos:station:TCOON:003:1,2012-05-05T20:00:00Z,26.8015,-97.4706,0.0,12.2,147.0,13.3,'11111222,11111222,11111222' 
TCOON,ioos:station:TCOON:003:1,2012-05-05T21:00:00Z,26.8015,-97.4706,0.0,12.8,134.0,14.8,'11111222,11111222,11111222' 
TCOON,ioos:station:TCOON:003:1,2012-05-05T22:00:00Z,26.8015,-97.4706,0.0,12.2,139.0,14.3,'11111222,11111222,11111222' 
TCOON,ioos:station:TCOON:003:1,2012-05-05T23:00:00Z,26.8015,-97.4706,0.0,11.9,140.0,14.3,'11111222,11111222,11111222' 
TCOON,ioos:station:TCOON:003:1,2012-05-06T00:00:00Z,26.8015,-97.4706,0.0,10.8,159.0,12.0,'11111222,11111222,11111222' 
TCOON,ioos:station:TCOON:003:1,2012-05-06T01:00:00Z,26.8015,-97.4706,0.0,11.4,151.0,13.7,'11111222,11111222,11111222' 
TCOON,ioos:station:TCOON:003:1,2012-05-06T02:00:00Z,26.8015,-97.4706,0.0,11.3,151.0,13.7,'11111222,11111222,11111222' 
TCOON,ioos:station:TCOON:003:1,2012-05-06T03:00:00Z,26.8015,-97.4706,0.0,10.2,159.0,14.1,'11111222,11111222,11111222' 
TCOON,ioos:station:TCOON:003:1,2012-05-06T04:00:00Z,26.8015,-97.4706,0.0,9.7,184.0,10.7,'11111222,11111222,11111222' 
TCOON,ioos:station:TCOON:003:1,2012-05-06T05:00:00Z,26.8015,-97.4706,0.0,8.9,175.0,10.3,'11111222,11111222,11111222' 
TCOON,ioos:station:TCOON:003:1,2012-05-06T06:00:00Z,26.8015,-97.4706,0.0,8.4,174.0,10.9,'11111222,11111222,11111222' 
TCOON,ioos:station:TCOON:003:1,2012-05-06T07:00:00Z,26.8015,-97.4706,0.0,8.8,168.0,10.5,'11111222,11111222,11111222' 
TCOON,ioos:station:TCOON:003:1,2012-05-06T08:00:00Z,26.8015,-97.4706,0.0,8.6,169.0,9.8,'11111222,11111222,11111222' 
TCOON,ioos:station:TCOON:003:1,2012-05-06T09:00:00Z,26.8015,-97.4706,0.0,7.1,139.0,8.1,'11111222,11111222,11111222' 
TCOON,ioos:station:TCOON:003:1,2012-05-06T10:00:00Z,26.8015,-97.4706,0.0,8.6,142.0,9.8,'11111222,11111222,11111222' 
TCOON,ioos:station:TCOON:003:1,2012-05-06T11:00:00Z,26.8015,-97.4706,0.0,8.7,146.0,9.9,'11111222,11111222,11111222' 
TCOON,ioos:station:TCOON:003:1,2012-05-06T12:00:00Z,26.8015,-97.4706,0.0,7.8,143.0,9.8,'11111222,11111222,11111222' 
TCOON,ioos:station:TCOON:003:1,2012-05-06T13:00:00Z,26.8015,-97.4706,0.0,6.6,146.0,7.9,'11111222,11111222,11111222' 
TCOON,ioos:station:TCOON:003:1,2012-05-06T14:00:00Z,26.8015,-97.4706,0.0,5.2,114.0,6.4,'11111222,11111222,11111222' 
TCOON,ioos:station:TCOON:003:1,2012-05-06T15:00:00Z,26.8015,-97.4706,0.0,6.2,86.0,9.1,'11111222,11111222,11111222' 
TCOON,ioos:station:TCOON:003:1,2012-05-06T16:00:00Z,26.8015,-97.4706,0.0,10.1,134.0,11.7,'11111222,11111222,11111222' 
TCOON,ioos:station:TCOON:003:1,2012-05-06T17:00:00Z,26.8015,-97.4706,0.0,10.1,148.0,11.5,'11111222,11111222,11111222' 
TCOON,ioos:station:TCOON:003:1,2012-05-06T18:00:00Z,26.8015,-97.4706,0.0,8.2,153.0,10.1,'11111222,11111222,11111222' 
TCOON,ioos:station:TCOON:003:1,2012-05-06T19:00:00Z,26.8015,-97.4706,0.0,9.2,130.0,11.0,'11111222,11111222,11111222' 
TCOON,ioos:station:TCOON:003:1,2012-05-06T20:00:00Z,26.8015,-97.4706,0.0,8.6,135.0,10.0,'11111222,11111222,11111222' 
TCOON,ioos:station:TCOON:003:1,2012-05-06T21:00:00Z,26.8015,-97.4706,0.0,9.9,154.0,11.4,'11111222,11111222,11111222' 
TCOON,ioos:station:TCOON:003:1,2012-05-06T22:00:00Z,26.8015,-97.4706,0.0,9.9,151.0,11.0,'11111222,11111222,11111222' 
TCOON,ioos:station:TCOON:003:1,2012-05-06T23:00:00Z,26.8015,-97.4706,0.0,9.6,146.0,11.0,'11111222,11111222,11111222' 
TCOON,ioos:station:TCOON:003:1,2012-05-07T00:00:00Z,26.8015,-97.4706,0.0,8.4,141.0,9.9,'11111222,11111222,11111222' 
TCOON,ioos:station:TCOON:003:1,2012-05-07T01:00:00Z,26.8015,-97.4706,0.0,7.3,140.0,8.6,'11111222,11111222,11111222' 
TCOON,ioos:station:TCOON:003:1,2012-05-07T02:00:00Z,26.8015,-97.4706,0.0,6.7,143.0,7.8,'11111222,11111222,11111222' 
TCOON,ioos:station:TCOON:003:1,2012-05-07T03:00:00Z,26.8015,-97.4706,0.0,6.9,145.0,7.8,'11111222,11111222,11111222' 
TCOON,ioos:station:TCOON:003:1,2012-05-07T04:00:00Z,26.8015,-97.4706,0.0,6.0,146.0,7.1,'11111222,11111222,11111222' 
TCOON,ioos:station:TCOON:003:1,2012-05-07T05:00:00Z,26.8015,-97.4706,0.0,2.9,172.0,4.0,'11111222,11111222,11111222' 
TCOON,ioos:station:TCOON:003:1,2012-05-07T06:00:00Z,26.8015,-97.4706,0.0,5.8,129.0,6.9,'11111222,11111222,11111222' 
TCOON,ioos:station:TCOON:003:1,2012-05-07T07:00:00Z,26.8015,-97.4706,0.0,5.5,133.0,6.9,'11111222,11111222,11111222' 
TCOON,ioos:station:TCOON:003:1,2012-05-07T08:00:00Z,26.8015,-97.4706,0.0,6.4,148.0,7.4,'11111222,11111222,11111222' 
TCOON,ioos:station:TCOON:003:1,2012-05-07T09:00:00Z,26.8015,-97.4706,0.0,6.7,145.0,8.9,'11111222,11111222,11111222' 
TCOON,ioos:station:TCOON:003:1,2012-05-07T10:00:00Z,26.8015,-97.4706,0.0,5.3,125.0,5.9,'11111222,11111222,11111222' 
TCOON,ioos:station:TCOON:003:1,2012-05-07T11:00:00Z,26.8015,-97.4706,0.0,5.7,130.0,6.9,'11111222,11111222,11111222' 
TCOON,ioos:station:TCOON:003:1,2012-05-07T12:00:00Z,26.8015,-97.4706,0.0,6.8,145.0,8.0,'11111222,11111222,11111222' 
TCOON,ioos:station:TCOON:003:1,2012-05-07T13:00:00Z,26.8015,-97.4706,0.0,6.3,131.0,7.5,'11111222,11111222,11111222' 
TCOON,ioos:station:TCOON:003:1,2012-05-07T14:00:00Z,26.8015,-97.4706,0.0,6.0,131.0,7.5,'11111222,11111222,11111222' 
TCOON,ioos:station:TCOON:003:1,2012-05-07T15:00:00Z,26.8015,-97.4706,0.0,5.5,142.0,6.2,'11111222,11111222,11111222' 
TCOON,ioos:station:TCOON:003:1,2012-05-07T16:00:00Z,26.8015,-97.4706,0.0,6.1,152.0,7.4,'11111222,11111222,11111222' 
TCOON,ioos:station:TCOON:003:1,2012-05-07T17:00:00Z,26.8015,-97.4706,0.0,7.1,132.0,8.2,'11111222,11111222,11111222' 
TCOON,ioos:station:TCOON:003:1,2012-05-07T18:00:00Z,26.8015,-97.4706,0.0,7.6,146.0,9.2,'11111222,11111222,11111222' 
TCOON,ioos:station:TCOON:003:1,2012-05-07T19:00:00Z,26.8015,-97.4706,0.0,8.0,121.0,10.2,'11111222,11111222,11111222' 
TCOON,ioos:station:TCOON:003:1,2012-05-07T20:00:00Z,26.8015,-97.4706,0.0,8.3,133.0,9.7,'11111222,11111222,11111222' 
TCOON,ioos:station:TCOON:003:1,2012-05-07T21:00:00Z,26.8015,-97.4706,0.0,8.7,144.0,10.7,'11111222,11111222,11111222' 
TCOON,ioos:station:TCOON:003:1,2012-05-07T22:00:00Z,26.8015,-97.4706,0.0,9.0,131.0,11.1,'11111222,11111222,11111222' 
TCOON,ioos:station:TCOON:003:1,2012-05-07T23:00:00Z,26.8015,-97.4706,0.0,8.5,138.0,10.5,'11111222,11111222,11111222' 
TCOON,ioos:station:TCOON:003:1,2012-05-08T00:00:00Z,26.8015,-97.4706,0.0,8.5,153.0,10.1,'11111222,11111222,11111222' 
TCOON,ioos:station:TCOON:003:1,2012-05-08T01:00:00Z,26.8015,-97.4706,0.0,8.1,129.0,9.1,'11111222,11111222,11111222' 
TCOON,ioos:station:TCOON:003:1,2012-05-08T02:00:00Z,26.8015,-97.4706,0.0,8.2,142.0,10.2,'11111222,11111222,11111222' 
TCOON,ioos:station:TCOON:003:1,2012-05-08T03:00:00Z,26.8015,-97.4706,0.0,6.9,141.0,9.0,'11111222,11111222,11111222' 
TCOON,ioos:station:TCOON:003:1,2012-05-08T04:00:00Z,26.8015,-97.4706,0.0,4.3,103.0,5.6,'11111222,11111222,11111222' 
TCOON,ioos:station:TCOON:003:1,2012-05-08T05:00:00Z,26.8015,-97.4706,0.0,4.6,77.0,5.3,'11111222,11111222,11111222' 
TCOON,ioos:station:TCOON:003:1,2012-05-08T06:00:00Z,26.8015,-97.4706,0.0,3.9,96.0,4.7,'11111222,11111222,11111222' 
TCOON,ioos:station:TCOON:003:1,2012-05-08T07:00:00Z,26.8015,-97.4706,0.0,4.6,74.0,5.4,'11111222,11111222,11111222' 
TCOON,ioos:station:TCOON:003:1,2012-05-08T08:00:00Z,26.8015,-97.4706,0.0,4.8,100.0,5.8,'11111222,11111222,11111222' 
TCOON,ioos:station:TCOON:003:1,2012-05-08T09:00:00Z,26.8015,-97.4706,0.0,4.8,109.0,6.3,'11111222,11111222,11111222' 
TCOON,ioos:station:TCOON:003:1,2012-05-08T10:00:00Z,26.8015,-97.4706,0.0,6.2,128.0,7.4,'11111222,11111222,11111222' 
TCOON,ioos:station:TCOON:003:1,2012-05-08T11:00:00Z,26.8015,-97.4706,0.0,6.8,125.0,8.0,'11111222,11111222,11111222' 
TCOON,ioos:station:TCOON:003:1,2012-05-08T12:00:00Z,26.8015,-97.4706,0.0,4.1,113.0,5.2,'11111222,11111222,11111222' 
TCOON,ioos:station:TCOON:003:1,2012-05-08T13:00:00Z,26.8015,-97.4706,0.0,4.8,122.0,6.4,'11111222,11111222,11111222' 
TCOON,ioos:station:TCOON:003:1,2012-05-08T14:00:00Z,26.8015,-97.4706,0.0,5.2,122.0,6.6,'11111222,11111222,11111222' 
TCOON,ioos:station:TCOON:003:1,2012-05-08T15:00:00Z,26.8015,-97.4706,0.0,5.3,117.0,7.6,'11111222,11111222,11111222' 
TCOON,ioos:station:TCOON:003:1,2012-05-08T16:00:00Z,26.8015,-97.4706,0.0,4.8,125.0,6.0,'11111222,11111222,11111222' 
TCOON,ioos:station:TCOON:003:1,2012-05-08T17:00:00Z,26.8015,-97.4706,0.0,5.7,117.0,6.8,'11111222,11111222,11111222' 
TCOON,ioos:station:TCOON:003:1,2012-05-08T18:00:00Z,26.8015,-97.4706,0.0,5.8,112.0,6.7,'11111222,11111222,11111222' 
TCOON,ioos:station:TCOON:003:1,2012-05-08T19:00:00Z,26.8015,-97.4706,0.0,5.2,91.0,7.7,'11111222,11111222,11111222' 
TCOON,ioos:station:TCOON:003:1,2012-05-08T20:00:00Z,26.8015,-97.4706,0.0,6.0,59.0,7.8,'11111222,11111222,11111222' 
TCOON,ioos:station:TCOON:003:1,2012-05-08T21:00:00Z,26.8015,-97.4706,0.0,8.3,63.0,9.5,'11111222,11111222,11111222' 
TCOON,ioos:station:TCOON:003:1,2012-05-08T22:00:00Z,26.8015,-97.4706,0.0,12.8,19.0,15.7,'11111222,11111222,11111222' 
TCOON,ioos:station:TCOON:003:1,2012-05-08T23:00:00Z,26.8015,-97.4706,0.0,10.6,51.0,13.4,'11111222,11111222,11111222' 
TCOON,ioos:station:TCOON:003:1,2012-05-09T00:00:00Z,26.8015,-97.4706,0.0,9.4,53.0,12.1,'11111222,11111222,11111222' 
TCOON,ioos:station:TCOON:003:1,2012-05-09T01:00:00Z,26.8015,-97.4706,0.0,6.9,52.0,9.4,'11111222,11111222,11111222' 
TCOON,ioos:station:TCOON:003:1,2012-05-09T02:00:00Z,26.8015,-97.4706,0.0,8.5,43.0,10.9,'11111222,11111222,11111222' 
TCOON,ioos:station:TCOON:003:1,2012-05-09T03:00:00Z,26.8015,-97.4706,0.0,6.9,52.0,7.7,'11111222,11111222,11111222' 
TCOON,ioos:station:TCOON:003:1,2012-05-09T04:00:00Z,26.8015,-97.4706,0.0,6.2,43.0,8.2,'11111222,11111222,11111222' 
TCOON,ioos:station:TCOON:003:1,2012-05-09T05:00:00Z,26.8015,-97.4706,0.0,5.7,44.0,7.2,'11111222,11111222,11111222' 
TCOON,ioos:station:TCOON:003:1,2012-05-09T06:00:00Z,26.8015,-97.4706,0.0,5.9,48.0,7.2,'11111222,11111222,11111222' 
TCOON,ioos:station:TCOON:003:1,2012-05-09T07:00:00Z,26.8015,-97.4706,0.0,7.6,3.0,8.9,'11111222,11111222,11111222' 
TCOON,ioos:station:TCOON:003:1,2012-05-09T08:00:00Z,26.8015,-97.4706,0.0,6.8,358.0,7.7,'11111222,11111222,11111222' 
TCOON,ioos:station:TCOON:003:1,2012-05-09T09:00:00Z,26.8015,-97.4706,0.0,7.8,3.0,9.3,'11111222,11111222,11111222' 
TCOON,ioos:station:TCOON:003:1,2012-05-09T10:00:00Z,26.8015,-97.4706,0.0,8.3,9.0,10.5,'11111222,11111222,11111222' 